sat.trackr.live / text

‹ back to catalog

STARLINK-32797

NORAD 62843 · 2025-019Q

PAYLOAD ACTIVE UNKNOWN

§ Identity

Operator
Country
US
Launch date
2025-01-27
Launch site
AFETR
Launch vehicle
Mass (kg)
RCS (m²)

Purposes: comms

External: N2YO · Heavens-Above · Gunter

§ Orbital elements

Epoch: 2026-09-21T17:32:30.675840Z

Period
94.27 min
Inclination
42.9957°
Eccentricity
0.0001024
Mean motion
15.27603568 rev/d
Perigee alt
482.3 km
Apogee alt
483.7 km
Semi-major
6,861.1 km
B*
3.6913e-4
RAAN
61.7773°
Arg perigee
126.1235°
Mean anomaly
233.9712°
Rev number
9,223

§ Raw data

STARLINK-327971 62843U 25019Q   26264.73091060  .00009917  00000+0  36913-3 0  99962 62843  42.9957  61.7773 0001024 126.1235 233.9712 15.27603568 92235

JSON: /api/v1/satellites/62843 · /tle

For live sub-satellite position, see the globe view (requires WebGL).

§ Visibility from observer

Set your observer location to see the next 7 days of passes ≥ 10°. The values pass through the URL so the page stays shareable.

No JS? Fill the form by hand. The geolocation button needs JavaScript.